When you browse on this site, cookies collect data to enhance your experience and personalize the content and advertising you see.
Visit our Privacy Policy to learn more. By continuing to use the site, you agree to this use of cookies and data.
  • En España
  • Lista de países
  • Para 7 días
  • Temperatura del agua
  • El tiempo en el mapa
  • Informadores
  • user-avatar
    Iniciar sesión

    Tiempo cada hora Lankaran

    Hoy, 10 Abril, Viernes

    Tiempo Temperatura Precipitaciones Viento Presión Humedad
    00:00 +1°C° 0 mm 0 mps 630 mmHg 93%
    01:00 +2°C° 0 mm 1 mps 630 mmHg 94%
    02:00 +2°C° 0 mm 1 mps 629 mmHg 94%
    03:00 +1°C° 0 mm 1 mps 629 mmHg 94%
    04:00 +1°C° 0 mm 1 mps 629 mmHg 94%
    05:00 +1°C° 0 mm 1 mps 629 mmHg 94%
    06:00 +1°C° 0 mm 1 mps 629 mmHg 94%
    07:00 +2°C° 0 mm 1 mps 629 mmHg 92%
    08:00 +2°C° 0 mm 1 mps 629 mmHg 91%
    09:00 +2°C° 0 mm 2 mps 629 mmHg 89%
    10:00 +2°C° 0 mm 2 mps 629 mmHg 89%
    11:00 +2°C° 0 mm 2 mps 629 mmHg 88%
    12:00 +2°C° 0 mm 2 mps 629 mmHg 88%
    13:00 +3°C° 0 mm 2 mps 628 mmHg 87%
    14:00 +3°C° 0 mm 2 mps 628 mmHg 86%
    15:00 +3°C° 0 mm 2 mps 628 mmHg 85%
    16:00 +3°C° 0.2 mm 2 mps 628 mmHg 87%
    17:00 +2°C° 0.2 mm 2 mps 627 mmHg 89%
    18:00 +2°C° 0.2 mm 1 mps 627 mmHg 92%
    19:00 +2°C° 0 mm 1 mps 628 mmHg 92%
    20:00 +2°C° 0 mm 1 mps 628 mmHg 92%
    21:00 +2°C° 0 mm 1 mps 628 mmHg 92%
    22:00 +2°C° 0 mm 1 mps 628 mmHg 92%
    23:00 +1°C° 0 mm 0 mps 628 mmHg 92%

    Mañana, 11 Abril, Sábado

    Tiempo Temperatura Precipitaciones Viento Presión Humedad
    00:00 0°C° 0 mm 0 mps 627 mmHg 93%
    01:00 0°C° 0 mm 0 mps 627 mmHg 92%
    02:00 0°C° 0 mm 0 mps 627 mmHg 92%
    03:00 0°C° 0 mm 0 mps 626 mmHg 92%
    04:00 0°C° 0 mm 0 mps 627 mmHg 92%
    05:00 0°C° 0 mm 0 mps 627 mmHg 92%
    06:00 0°C° 0 mm 0 mps 627 mmHg 92%
    07:00 +2°C° 0 mm 1 mps 628 mmHg 87%
    08:00 +4°C° 0 mm 1 mps 628 mmHg 83%
    09:00 +5°C° 0 mm 1 mps 629 mmHg 79%
    10:00 +6°C° 0.1 mm 1 mps 629 mmHg 78%
    11:00 +5°C° 0.1 mm 2 mps 629 mmHg 76%
    12:00 +6°C° 0.1 mm 2 mps 629 mmHg 75%
    13:00 +6°C° 0.2 mm 2 mps 629 mmHg 77%
    14:00 +5°C° 0.2 mm 2 mps 628 mmHg 79%
    15:00 +5°C° 0.2 mm 2 mps 628 mmHg 82%
    16:00 +4°C° 0.3 mm 2 mps 628 mmHg 84%
    17:00 +4°C° 0.3 mm 2 mps 628 mmHg 87%
    18:00 +3°C° 0.3 mm 2 mps 628 mmHg 89%
    19:00 +4°C° 0.1 mm 1 mps 629 mmHg 89%
    20:00 +4°C° 0.1 mm 1 mps 629 mmHg 89%
    21:00 +3°C° 0.1 mm 1 mps 629 mmHg 88%
    22:00 +4°C° 0 mm 1 mps 629 mmHg 87%
    23:00 +4°C° 0 mm 1 mps 630 mmHg 86%

    Pasado mañana, 12 Abril, Domingo

    Tiempo Temperatura Precipitaciones Viento Presión Humedad
    00:00 +4°C° 0 mm 1 mps 630 mmHg 85%
    01:00 +4°C° 0 mm 1 mps 630 mmHg 85%
    02:00 +4°C° 0 mm 1 mps 630 mmHg 84%
    03:00 +3°C° 0 mm 1 mps 630 mmHg 84%
    04:00 +3°C° 0 mm 1 mps 630 mmHg 84%
    05:00 +3°C° 0 mm 1 mps 630 mmHg 84%
    06:00 +3°C° 0 mm 1 mps 631 mmHg 83%
    07:00 +4°C° 0 mm 1 mps 631 mmHg 83%
    08:00 +4°C° 0 mm 1 mps 631 mmHg 82%
    09:00 +4°C° 0 mm 2 mps 632 mmHg 82%
    10:00 +4°C° 0 mm 2 mps 632 mmHg 80%
    11:00 +4°C° 0 mm 2 mps 632 mmHg 79%
    12:00 +5°C° 0 mm 2 mps 632 mmHg 78%
    13:00 +5°C° 0 mm 2 mps 632 mmHg 77%
    14:00 +5°C° 0 mm 2 mps 631 mmHg 75%
    15:00 +4°C° 0 mm 3 mps 631 mmHg 74%
    16:00 +4°C° 0.6 mm 2 mps 631 mmHg 80%
    17:00 +3°C° 0.6 mm 2 mps 631 mmHg 86%
    18:00 +3°C° 0.6 mm 2 mps 632 mmHg 91%
    19:00 +2°C° 0.3 mm 2 mps 632 mmHg 92%
    20:00 +3°C° 0.3 mm 1 mps 633 mmHg 93%
    21:00 +3°C° 0.3 mm 1 mps 633 mmHg 94%
    22:00 +2°C° 0.3 mm 2 mps 633 mmHg 95%
    23:00 +2°C° 0.3 mm 2 mps 633 mmHg 95%

    13 Abril, Lunes

    Tiempo Temperatura Precipitaciones Viento Presión Humedad
    00:00 +1°C° 0.3 mm 2 mps 634 mmHg 96%
    01:00 0°C° 1.2 mm 3 mps 634 mmHg 96%
    02:00 0°C° 1.2 mm 3 mps 634 mmHg 97%
    03:00 -1°C° 1.2 mm 3 mps 634 mmHg 97%
    04:00 -1°C° 1.8 mm 3 mps 634 mmHg 97%
    05:00 -2°C° 1.8 mm 3 mps 634 mmHg 97%
    06:00 -2°C° 1.8 mm 3 mps 635 mmHg 97%
    07:00 -2°C° 0.9 mm 3 mps 635 mmHg 97%
    08:00 -2°C° 0.9 mm 3 mps 635 mmHg 97%
    09:00 -1°C° 0.9 mm 3 mps 636 mmHg 97%
    10:00 -1°C° 0.6 mm 3 mps 636 mmHg 96%
    11:00 -1°C° 0.6 mm 3 mps 636 mmHg 95%
    12:00 -1°C° 0.6 mm 3 mps 636 mmHg 95%
    13:00 -1°C° 0.2 mm 2 mps 635 mmHg 94%
    14:00 -1°C° 0.2 mm 2 mps 635 mmHg 94%
    15:00 -1°C° 0.2 mm 2 mps 635 mmHg 94%
    16:00 -1°C° 0 mm 2 mps 635 mmHg 94%
    17:00 +1°C° 0 mm 1 mps 635 mmHg 94%
    18:00 +1°C° 0 mm 1 mps 635 mmHg 95%
    19:00 +1°C° 0 mm 1 mps 635 mmHg 95%
    20:00 +1°C° 0 mm 1 mps 635 mmHg 95%
    21:00 0°C° 0 mm 0 mps 636 mmHg 95%
    22:00 -1°C° 0 mm 0 mps 635 mmHg 94%
    23:00 -1°C° 0 mm 0 mps 635 mmHg 93%

    14 Abril, Martes

    Tiempo Temperatura Precipitaciones Viento Presión Humedad
    00:00 0°C° 0 mm 1 mps 634 mmHg 92%
    01:00 0°C° 0 mm 1 mps 634 mmHg 91%
    02:00 0°C° 0 mm 1 mps 634 mmHg 90%
    03:00 0°C° 0 mm 1 mps 634 mmHg 89%
    04:00 0°C° 0 mm 1 mps 634 mmHg 88%
    05:00 0°C° 0 mm 1 mps 634 mmHg 87%
    06:00 0°C° 0 mm 1 mps 634 mmHg 86%
    07:00 +1°C° 0 mm 1 mps 634 mmHg 84%
    08:00 +3°C° 0 mm 1 mps 634 mmHg 82%
    09:00 +4°C° 0 mm 1 mps 635 mmHg 79%
    10:00 +4°C° 0 mm 2 mps 635 mmHg 77%
    11:00 +5°C° 0 mm 2 mps 635 mmHg 75%
    12:00 +6°C° 0 mm 2 mps 634 mmHg 72%
    13:00 +6°C° 0 mm 2 mps 634 mmHg 73%
    14:00 +7°C° 0 mm 2 mps 634 mmHg 73%
    15:00 +7°C° 0 mm 2 mps 634 mmHg 73%
    16:00 +6°C° 0 mm 2 mps 633 mmHg 79%
    17:00 +5°C° 0 mm 2 mps 633 mmHg 84%
    18:00 +5°C° 0 mm 1 mps 632 mmHg 89%
    19:00 +5°C° 0 mm 1 mps 632 mmHg 87%
    20:00 +4°C° 0 mm 1 mps 632 mmHg 85%
    21:00 +4°C° 0 mm 1 mps 632 mmHg 82%
    22:00 +4°C° 0 mm 1 mps 632 mmHg 80%
    23:00 +4°C° 0 mm 1 mps 631 mmHg 78%

    15 Abril, Miércoles

    Tiempo Temperatura Precipitaciones Viento Presión Humedad
    00:00 +4°C° 0 mm 1 mps 631 mmHg 76%
    01:00 +4°C° 0 mm 1 mps 631 mmHg 75%
    02:00 +3°C° 0 mm 1 mps 630 mmHg 73%
    03:00 +3°C° 0 mm 1 mps 630 mmHg 71%
    04:00 +4°C° 0 mm 1 mps 630 mmHg 71%
    05:00 +4°C° 0 mm 1 mps 630 mmHg 70%
    06:00 +4°C° 0 mm 1 mps 630 mmHg 70%
    07:00 +6°C° 0 mm 2 mps 631 mmHg 65%
    08:00 +8°C° 0 mm 2 mps 632 mmHg 59%
    09:00 +10°C° 0 mm 3 mps 633 mmHg 54%
    10:00 +11°C° 0 mm 3 mps 633 mmHg 51%
    11:00 +12°C° 0 mm 3 mps 633 mmHg 47%
    12:00 +13°C° 0 mm 4 mps 633 mmHg 44%
    13:00 +13°C° 0 mm 3 mps 632 mmHg 43%
    14:00 +13°C° 0 mm 3 mps 632 mmHg 43%
    15:00 +13°C° 0 mm 3 mps 631 mmHg 43%
    16:00 +12°C° 0 mm 3 mps 631 mmHg 48%
    17:00 +12°C° 0 mm 2 mps 630 mmHg 53%
    18:00 +10°C° 0 mm 1 mps 629 mmHg 58%
    19:00 +10°C° 0 mm 1 mps 629 mmHg 55%
    20:00 +9°C° 0 mm 1 mps 629 mmHg 53%
    21:00 +8°C° 0 mm 1 mps 629 mmHg 51%
    22:00 +8°C° 0 mm 1 mps 629 mmHg 50%
    23:00 +8°C° 0 mm 1 mps 629 mmHg 49%
    Mostrar más